Regional Weather Roundup
Issued by NWS

Home | Current Version | Previous Version | Graphics & Text | Print | Product List | Glossary On
Versions: 1 2 3 4 5 6 7 8 9 10 11 12 13 14 15 16 17 18 19 20 21 22 23 24 25 26 27 28 29 30 31 32 33 34 35 36 37 38 39 40 41 42 43 44 45 46 47 48 49 50
384
ASUS43 KFSD 191110
RWRSD

WEATHER ROUNDUP FOR SOUTH DAKOTA
NATIONAL WEATHER SERVICE SIOUX FALLS SD
600 AM CDT TUE SEP 19 2017

NOTE: "FAIR" INDICATES FEW OR NO CLOUDS BELOW 12,000 FEET WITH NO
SIGNIFICANT WEATHER AND/OR OBSTRUCTIONS TO VISIBILITY.


SDZ001>005-009-010-012>017-191200-
NORTHWEST AND NORTH CENTRAL SOUTH DAKOTA

CITY           SKY/WX    TMP DP  RH WIND       PRES   REMARKS
BUFFALO          N/A     60  43  53 W9        29.44R
FAITH            N/A     63  48  58 S14       29.55F
MOBRIDGE       PTCLDY    63  58  83 SE15      29.58F
$$

SDZ012>016-024>037-041>051-057-063-072>074-191200-
SOUTHWEST AND SOUTH CENTRAL SOUTH DAKOTA

CITY           SKY/WX    TMP DP  RH WIND       PRES   REMARKS
RAPID CTY ARPT NOT AVBL
PIERRE         CLOUDY    61  58  90 SE15      29.60F
CUSTER         CLOUDY    57  40  52 VRB5      29.69F
ELLSWORTH AFB  CLOUDY    62  46  56 S15       29.56S
PHILIP         MOCLDY    69  56  62 S5        29.58S
PINE RIDGE     CLOUDY    64  55  72 S17G25    29.62F
SPEARFISH      FAIR      66  37  34 S14       29.56F
WINNER         FAIR      65  60  84 S13       29.66F
$$

SDZ004>011-016>023-039-040-191200-
NORTHEAST SOUTH DAKOTA

CITY           SKY/WX    TMP DP  RH WIND       PRES   REMARKS
ABERDEEN       CLOUDY    65  64  97 SE15      29.71S
WATERTOWN      CLOUDY    64  64 100 S12       29.78S FOG
BROOKINGS      CLOUDY    65  64  97 S12       29.81S
SISSETON         N/A     64  64 100 SE10      29.77F
$$

SDZ017-020-022-023-036>040-048>070-191200-
SOUTHEAST SOUTH DAKOTA

CITY           SKY/WX    TMP DP  RH WIND       PRES   REMARKS
SIOUX FALLS    CLOUDY    67  66  97 SE12      29.80F FOG
HURON          CLOUDY    67  65  93 SE15G22   29.72F
CHAMBERLAIN    PTCLDY    61  61 100 E9        29.68F FOG
MITCHELL       CLOUDY    67  65  93 SE13      29.74F
YANKTON        CLOUDY    66  64  94 SE12      29.77F
$$

ABBREVIATIONS USED IN REMARKS
   TC - TEMPERATURE IN CELSIUS
  WCI - WIND CHILL INDEX
   HX - HEAT INDEX
  VSB - VISIBILITY





USA.gov is the U.S. government's official web portal to all federal, state and local government web resources and services.